Location: Unspecified
(64.9000°N, 0.0000°E)
Time: 20:39:32
(UTC+00:00)

Altair - Pass Details

Date: 16 June 2019
Orbit: 1501 x 1683 km, 47.2° (Epoch: 18 July)

Event Time Altitude Azimuth Distance (km) Brightness Sun altitude
Rises 01:29:44 0° 256° (WSW) 4,846 9.8 -0.1°
Reaches altitude 10° 01:33:28 10° 245° (WSW) 3,884 9.2 0.0°
Maximum altitude 01:41:08 26° 194° (SSW) 2,841 8.4 0.3°
Drops below altitude 10° 01:48:55 10° 143° (SE) 3,944 9.4 0.7°
Sets 01:52:45 0° 132° (SE) 4,933 10.0 0.9°
